This demonstration page uses our WeatherBlox Daily Observations layout. Learn more.

Left ArrowRight Arrow

34.16533, -84.80231

Hourly Observations for September 14, 2017

Temp ( °F °C ) Dew Point ( °F °C ) Humidity (%) Winds ( mph kmh ) Pressure ( in mb ) Visibility ( mi km ) Precip ( " mm )
12:53 am 00:53 Cloudy 64 17.8 64 17.8 100 100 Calm 29.92 1013 10 16 0.00 0.00
1:53 am 01:53 Cloudy 64 17.8 64 17.8 100 100 Calm 29.90 1013 10 16 0.00 0.00
2:53 am 02:53 Cloudy 63 17.2 63 17.2 100 100 Calm 29.91 1013 10 16 0.00 0.00
3:53 am 03:53 Cloudy 63 17.2 63 17.2 100 100 Calm 29.91 1013 10 16 0.00 0.00
4:53 am 04:53 Cloudy 64 17.8 64 17.8 100 100 Calm 29.92 1013 10 16 0.00 0.00
5:53 am 05:53 Cloudy 64 17.8 64 17.8 100 100 Calm 29.93 1014 10 16 0.00 0.00
6:53 am 06:53 Cloudy 64 17.8 64 17.8 100 100 Calm 29.93 1014 10 16 0.00 0.00
7:53 am 07:53 Cloudy 65 18.3 64 17.8 97 97 Calm 29.96 1014 10 16 0.00 0.00
8:53 am 08:53 Cloudy 65 18.3 65 18.3 100 100 Calm 29.97 1015 10 16 0.00 0.00
9:53 am 09:53 Cloudy 68 20 65 18.3 90 90 Calm 29.98 1015 10 16 0.00 0.00
10:53 am 10:53 Cloudy 71 21.7 64 17.8 79 79 Calm 29.99 1016 10 16 0.00 0.00
11:53 am 11:53 Cloudy 74 23.3 65 18.3 74 74 Calm 29.98 1015 10 16 0.00 0.00
12:10 pm 12:10 Cloudy 74 23.3 64 17.8 71 71 VRB 3 6 30.00 1016 10 16 0.00 0.00
12:42 pm 12:42 Cloudy 75 23.9 65 18.3 71 71 N 5 7 30.00 1016 10 16 0.00 0.00
12:53 pm 12:53 Cloudy 77 25 65 18.3 66 66 Calm 29.97 1015 10 16 0.00 0.00
1:53 pm 13:53 Cloudy 77 25 65 18.3 66 66 VRB 5 7 29.97 1015 10 16 0.00 0.00
2:53 pm 14:53 Mostly Cloudy 77 25 65 18.3 66 66 Calm 29.96 1015 10 16 0.00 0.00
3:53 pm 15:53 Cloudy 77 25 65 18.3 66 66 VRB 3 6 29.95 1014 10 16 0.00 0.00
4:53 pm 16:53 Mostly Cloudy 79 26.1 63 17.2 58 58 VRB 5 7 29.93 1014 10 16 0.00 0.00
5:53 pm 17:53 Partly Cloudy 78 25.6 66 18.9 67 67 VRB 3 6 29.94 1014 10 16 0.00 0.00
6:53 pm 18:53 Mostly Cloudy 76 24.4 67 19.4 74 74 Calm 29.95 1014 10 16 0.00 0.00
7:53 pm 19:53 Mostly Cloudy 69 20.6 69 20.6 100 100 Calm 29.96 1015 10 16 0.00 0.00
8:53 pm 20:53 Partly Cloudy 68 20 68 20 100 100 Calm 29.97 1015 10 16 0.00 0.00
9:53 pm 21:53 Clear 65 18.3 65 18.3 100 100 Calm 29.98 1015 8 13 0.00 0.00
10:53 pm 22:53 Clear 64 17.8 64 17.8 100 100 Calm 29.99 1016 8 13 0.00 0.00
11:53 pm 23:53 Mostly Clear 63 17.2 63 17.2 100 100 Calm 30.00 1016 7 11 0.00 0.00

Powered by AerisWeather